EOS-6 (OCEANSAT-3)

Last updated on Fri Jul 11 2025 00:02:39 GMT+0000 (Coordinated Universal Time)

1 54361U 22158A 25191.56601307 .00000183 00000+0 62153-4 0 9995 2 54361 98.3543 289.3507 0000425 35.3147 324.8073 14.47006069138434
UTC large
Height (km)
Speed (km/s)
/
Latitude / Longitude
Inclination (degrees)
Orbital Period (minutes)
Azimuth
Elevation
Range (km)
Doppler Factor

Next 0 passes for location: London (51.5072 / 0.1276)

Sorry there are no passes over London.